contact:dominique.lefevre@mio.osupytheas.fr, maurice.libes@osupytheas.fr, didier.mallarino@osupytheas.fr
Project:EMSO http://www.emso-fr.org/EMSO-France
Depth: 2436.0 m
Title:EMSO Ligure Ouest : Data MII capteur MICROCAT
DateTime_Computer,Latitude,Longitude,Temperature,Conductivity,Pressure,DateTime_Instrument
DateTime_Computer,Latitude,Longitude,degC,S m-1,dbar,DateTime_Instrument
2019-06-25T00:02:10Z,42.805,6.029,13.2960,4.59956,2469.937,2019-6-25T02:02:27Z
2019-06-25T00:05:13Z,42.805,6.029,13.2958,4.59956,2469.937,2019-6-25T02:05:30Z
2019-06-25T00:08:16Z,42.805,6.029,13.2956,4.59958,2469.96,2019-6-25T02:08:33Z
2019-06-25T00:11:19Z,42.805,6.029,13.2960,4.59961,2469.947,2019-6-25T02:11:36Z
2019-06-25T00:14:22Z,42.805,6.029,13.2961,4.59963,2469.96,2019-6-25T02:14:39Z
2019-06-25T00:17:25Z,42.805,6.029,13.2958,4.59957,2469.96,2019-6-25T02:17:41Z
2019-06-25T00:20:28Z,42.805,6.029,13.2958,4.59958,2469.96,2019-6-25T02:20:44Z
2019-06-25T00:23:31Z,42.805,6.029,13.2960,4.59956,2469.947,2019-6-25T02:23:47Z
2019-06-25T00:26:33Z,42.805,6.029,13.2956,4.59956,2469.947,2019-6-25T02:26:50Z
2019-06-25T00:29:36Z,42.805,6.029,13.2958,4.59960,2469.96,2019-6-25T02:29:53Z
2019-06-25T00:32:39Z,42.805,6.029,13.2961,4.59957,2469.947,2019-6-25T02:32:56Z
2019-06-25T00:35:42Z,42.805,6.029,13.2960,4.59957,2469.96,2019-6-25T02:35:59Z
2019-06-25T00:38:45Z,42.805,6.029,13.2957,4.59956,2469.947,2019-6-25T02:39:02Z
2019-06-25T00:41:48Z,42.805,6.029,13.2957,4.59958,2469.96,2019-6-25T02:42:05Z
2019-06-25T00:44:51Z,42.805,6.029,13.2958,4.59956,2469.923,2019-6-25T02:45:08Z
2019-06-25T00:47:54Z,42.805,6.029,13.2956,4.59961,2469.96,2019-6-25T02:48:11Z
2019-06-25T00:50:57Z,42.805,6.029,13.2958,4.59956,2469.923,2019-6-25T02:51:14Z
2019-06-25T00:54:00Z,42.805,6.029,13.2956,4.59959,2469.984,2019-6-25T02:54:17Z
2019-06-25T00:57:03Z,42.805,6.029,13.2958,4.59956,2469.96,2019-6-25T02:57:20Z
2019-06-25T01:00:06Z,42.805,6.029,13.2957,4.59958,2469.96,2019-6-25T03:00:23Z
2019-06-25T01:03:09Z,42.805,6.029,13.2957,4.59956,2469.96,2019-6-25T03:03:26Z
2019-06-25T01:06:12Z,42.805,6.029,13.2956,4.59956,2469.947,2019-6-25T03:06:29Z
2019-06-25T01:09:15Z,42.805,6.029,13.2957,4.59958,2469.937,2019-6-25T03:09:32Z
2019-06-25T01:12:18Z,42.805,6.029,13.2952,4.59957,2469.947,2019-6-25T03:12:35Z
2019-06-25T01:15:21Z,42.805,6.029,13.2957,4.59956,2469.984,2019-6-25T03:15:37Z
2019-06-25T01:18:24Z,42.805,6.029,13.2954,4.59956,2469.923,2019-6-25T03:18:40Z
2019-06-25T01:21:27Z,42.805,6.029,13.2957,4.59956,2469.947,2019-6-25T03:21:43Z
2019-06-25T01:24:30Z,42.805,6.029,13.2955,4.59955,2469.937,2019-6-25T03:24:46Z
2019-06-25T01:27:32Z,42.805,6.029,13.2957,4.59958,2469.9,2019-6-25T03:27:49Z
2019-06-25T01:30:35Z,42.805,6.029,13.2957,4.59955,2469.96,2019-6-25T03:30:52Z
2019-06-25T01:33:38Z,42.805,6.029,13.2961,4.59958,2469.96,2019-6-25T03:33:55Z
2019-06-25T01:36:41Z,42.805,6.029,13.2956,4.59957,2469.923,2019-6-25T03:36:58Z
2019-06-25T01:39:44Z,42.805,6.029,13.2957,4.59957,2469.96,2019-6-25T03:40:01Z
2019-06-25T01:42:47Z,42.805,6.029,13.2960,4.59960,2469.97,2019-6-25T03:43:04Z
2019-06-25T01:45:50Z,42.805,6.029,13.2958,4.59963,2469.947,2019-6-25T03:46:07Z
2019-06-25T01:48:53Z,42.805,6.029,13.2958,4.59961,2469.923,2019-6-25T03:49:10Z
2019-06-25T01:51:56Z,42.805,6.029,13.2959,4.59957,2469.923,2019-6-25T03:52:13Z
2019-06-25T01:54:59Z,42.805,6.029,13.2959,4.59957,2469.947,2019-6-25T03:55:16Z
2019-06-25T01:58:02Z,42.805,6.029,13.2954,4.59957,2469.97,2019-6-25T03:58:19Z
2019-06-25T02:01:05Z,42.805,6.029,13.2957,4.59957,2469.923,2019-6-25T04:01:22Z
2019-06-25T02:04:08Z,42.805,6.029,13.2958,4.59956,2469.947,2019-6-25T04:04:25Z
2019-06-25T02:07:11Z,42.805,6.029,13.2953,4.59957,2469.97,2019-6-25T04:07:28Z
2019-06-25T02:10:14Z,42.805,6.029,13.2953,4.59957,2469.923,2019-6-25T04:10:31Z
2019-06-25T02:13:17Z,42.805,6.029,13.2955,4.59956,2469.96,2019-6-25T04:13:34Z
2019-06-25T02:16:20Z,42.805,6.029,13.2957,4.59960,2469.923,2019-6-25T04:16:36Z
2019-06-25T02:19:23Z,42.805,6.029,13.2957,4.59955,2469.923,2019-6-25T04:19:39Z
2019-06-25T02:22:26Z,42.805,6.029,13.2955,4.59956,2469.914,2019-6-25T04:22:42Z
2019-06-25T02:25:28Z,42.805,6.029,13.2957,4.59957,2469.937,2019-6-25T04:25:45Z
2019-06-25T02:28:31Z,42.805,6.029,13.2955,4.59955,2469.937,2019-6-25T04:28:48Z
2019-06-25T02:31:34Z,42.805,6.029,13.2957,4.59956,2469.937,2019-6-25T04:31:51Z
2019-06-25T02:34:37Z,42.805,6.029,13.2957,4.59964,2469.914,2019-6-25T04:34:54Z
2019-06-25T02:37:40Z,42.805,6.029,13.2959,4.59956,2469.947,2019-6-25T04:37:57Z
2019-06-25T02:40:43Z,42.805,6.029,13.2957,4.59956,2469.9,2019-6-25T04:41:00Z
2019-06-25T02:43:46Z,42.805,6.029,13.2962,4.59956,2469.914,2019-6-25T04:44:03Z
2019-06-25T02:46:49Z,42.805,6.029,13.2957,4.59955,2469.923,2019-6-25T04:47:06Z
2019-06-25T02:49:52Z,42.805,6.029,13.2958,4.59957,2469.923,2019-6-25T04:50:09Z
2019-06-25T02:52:55Z,42.805,6.029,13.2961,4.59954,2469.914,2019-6-25T04:53:12Z
2019-06-25T02:55:58Z,42.805,6.029,13.2957,4.59954,2469.9,2019-6-25T04:56:15Z
2019-06-25T02:59:01Z,42.805,6.029,13.2954,4.59958,2469.9,2019-6-25T04:59:18Z
2019-06-25T03:02:04Z,42.805,6.029,13.2957,4.59953,2469.89,2019-6-25T05:02:21Z
2019-06-25T03:05:07Z,42.805,6.029,13.2957,4.59954,2469.974,2019-6-25T05:05:24Z
2019-06-25T03:08:10Z,42.805,6.029,13.2957,4.59953,2469.9,2019-6-25T05:08:27Z
2019-06-25T03:11:13Z,42.805,6.029,13.2954,4.59953,2469.9,2019-6-25T05:11:30Z
2019-06-25T03:14:16Z,42.805,6.029,13.2958,4.59952,2469.923,2019-6-25T05:14:32Z
2019-06-25T03:17:19Z,42.805,6.029,13.2956,4.59953,2469.923,2019-6-25T05:17:35Z
2019-06-25T03:20:22Z,42.805,6.029,13.2954,4.59952,2469.923,2019-6-25T05:20:38Z
2019-06-25T03:23:24Z,42.805,6.029,13.2958,4.59953,2469.914,2019-6-25T05:23:41Z
2019-06-25T03:26:27Z,42.805,6.029,13.2956,4.59954,2469.876,2019-6-25T05:26:44Z
2019-06-25T03:29:30Z,42.805,6.029,13.2953,4.59953,2469.923,2019-6-25T05:29:47Z
2019-06-25T03:32:33Z,42.805,6.029,13.2958,4.59954,2469.876,2019-6-25T05:32:50Z
2019-06-25T03:35:36Z,42.805,6.029,13.2957,4.59956,2469.853,2019-6-25T05:35:53Z
2019-06-25T03:38:39Z,42.805,6.029,13.2952,4.59952,2469.89,2019-6-25T05:38:56Z
2019-06-25T03:41:42Z,42.805,6.029,13.2958,4.59955,2469.927,2019-6-25T05:41:59Z
2019-06-25T03:44:45Z,42.805,6.029,13.2953,4.59954,2469.914,2019-6-25T05:45:02Z
2019-06-25T03:47:48Z,42.805,6.029,13.2957,4.59952,2469.937,2019-6-25T05:48:05Z
2019-06-25T03:50:51Z,42.805,6.029,13.2952,4.59954,2469.9,2019-6-25T05:51:08Z
2019-06-25T03:53:54Z,42.805,6.029,13.2955,4.59954,2469.9,2019-6-25T05:54:11Z
2019-06-25T03:56:57Z,42.805,6.029,13.2957,4.59954,2469.876,2019-6-25T05:57:14Z
2019-06-25T04:00:00Z,42.805,6.029,13.2957,4.59954,2469.9,2019-6-25T06:00:17Z
2019-06-25T04:03:03Z,42.805,6.029,13.2955,4.59953,2469.923,2019-6-25T06:03:20Z
2019-06-25T04:06:06Z,42.805,6.029,13.2955,4.59956,2469.914,2019-6-25T06:06:23Z
2019-06-25T04:09:09Z,42.805,6.029,13.2957,4.59953,2469.9,2019-6-25T06:09:26Z
2019-06-25T04:12:12Z,42.805,6.029,13.2953,4.59954,2469.9,2019-6-25T06:12:28Z
2019-06-25T04:15:15Z,42.805,6.029,13.2957,4.59955,2469.853,2019-6-25T06:15:31Z
2019-06-25T04:18:18Z,42.805,6.029,13.2955,4.59954,2469.89,2019-6-25T06:18:34Z
2019-06-25T04:21:21Z,42.805,6.029,13.2956,4.59953,2469.876,2019-6-25T06:21:37Z
2019-06-25T04:24:23Z,42.805,6.029,13.2957,4.59954,2469.89,2019-6-25T06:24:40Z
2019-06-25T04:27:26Z,42.805,6.029,13.2956,4.59958,2469.9,2019-6-25T06:27:43Z
2019-06-25T04:30:29Z,42.805,6.029,13.2957,4.59954,2469.89,2019-6-25T06:30:46Z
2019-06-25T04:33:32Z,42.805,6.029,13.2957,4.59956,2469.876,2019-6-25T06:33:49Z
2019-06-25T04:36:35Z,42.805,6.029,13.2954,4.59955,2469.89,2019-6-25T06:36:52Z
2019-06-25T04:39:38Z,42.805,6.029,13.2958,4.59954,2469.89,2019-6-25T06:39:55Z
2019-06-25T04:42:41Z,42.805,6.029,13.2953,4.59953,2469.89,2019-6-25T06:42:58Z
2019-06-25T04:45:44Z,42.805,6.029,13.2956,4.59954,2469.914,2019-6-25T06:46:01Z
2019-06-25T04:48:47Z,42.805,6.029,13.2957,4.59956,2469.9,2019-6-25T06:49:04Z
2019-06-25T04:51:50Z,42.805,6.029,13.2961,4.59954,2469.853,2019-6-25T06:52:07Z
2019-06-25T04:54:53Z,42.805,6.029,13.2958,4.59956,2469.914,2019-6-25T06:55:10Z
2019-06-25T04:57:56Z,42.805,6.029,13.2956,4.59954,2469.876,2019-6-25T06:58:13Z
2019-06-25T05:00:59Z,42.805,6.029,13.2958,4.59956,2469.89,2019-6-25T07:01:16Z
2019-06-25T05:04:02Z,42.805,6.029,13.2953,4.59955,2469.876,2019-6-25T07:04:19Z
2019-06-25T05:07:05Z,42.805,6.029,13.2958,4.59959,2469.914,2019-6-25T07:07:22Z
2019-06-25T05:10:08Z,42.805,6.029,13.2958,4.59954,2469.89,2019-6-25T07:10:25Z
2019-06-25T05:13:11Z,42.805,6.029,13.2955,4.59956,2469.876,2019-6-25T07:13:27Z
2019-06-25T05:16:14Z,42.805,6.029,13.2956,4.59955,2469.853,2019-6-25T07:16:30Z
2019-06-25T05:19:17Z,42.805,6.029,13.2957,4.59956,2469.89,2019-6-25T07:19:33Z
2019-06-25T05:22:19Z,42.805,6.029,13.2957,4.59955,2469.876,2019-6-25T07:22:36Z
2019-06-25T05:25:22Z,42.805,6.029,13.2959,4.59955,2469.9,2019-6-25T07:25:39Z
2019-06-25T05:28:25Z,42.805,6.029,13.2957,4.59956,2469.89,2019-6-25T07:28:42Z
2019-06-25T05:31:28Z,42.805,6.029,13.2957,4.59954,2469.876,2019-6-25T07:31:45Z
2019-06-25T05:34:31Z,42.805,6.029,13.2950,4.59955,2469.867,2019-6-25T07:34:48Z
2019-06-25T05:37:34Z,42.805,6.029,13.2955,4.59954,2469.867,2019-6-25T07:37:51Z
2019-06-25T05:40:37Z,42.805,6.029,13.2960,4.59955,2469.876,2019-6-25T07:40:54Z
2019-06-25T05:43:40Z,42.805,6.029,13.2958,4.59956,2469.867,2019-6-25T07:43:57Z
2019-06-25T05:46:43Z,42.805,6.029,13.2957,4.59958,2469.844,2019-6-25T07:47:00Z
2019-06-25T05:49:46Z,42.805,6.029,13.2956,4.59956,2469.876,2019-6-25T07:50:03Z
2019-06-25T05:52:49Z,42.805,6.029,13.2958,4.59961,2469.83,2019-6-25T07:53:06Z
2019-06-25T05:55:52Z,42.805,6.029,13.2957,4.59955,2469.83,2019-6-25T07:56:09Z
2019-06-25T05:58:55Z,42.805,6.029,13.2957,4.59956,2469.844,2019-6-25T07:59:12Z
2019-06-25T06:01:58Z,42.805,6.029,13.2957,4.59954,2469.867,2019-6-25T08:02:15Z
2019-06-25T06:05:01Z,42.805,6.029,13.2955,4.59954,2469.83,2019-6-25T08:05:18Z
2019-06-25T06:08:04Z,42.805,6.029,13.2957,4.59954,2469.853,2019-6-25T08:08:21Z
2019-06-25T06:11:07Z,42.805,6.029,13.2957,4.59956,2469.853,2019-6-25T08:11:23Z
2019-06-25T06:14:10Z,42.805,6.029,13.2954,4.59954,2469.83,2019-6-25T08:14:26Z
2019-06-25T06:17:13Z,42.805,6.029,13.2958,4.59954,2469.83,2019-6-25T08:17:29Z
2019-06-25T06:20:15Z,42.805,6.029,13.2961,4.59961,2469.867,2019-6-25T08:20:32Z
2019-06-25T06:23:18Z,42.805,6.029,13.2957,4.59954,2469.83,2019-6-25T08:23:35Z
2019-06-25T06:26:21Z,42.805,6.029,13.2953,4.59956,2469.83,2019-6-25T08:26:38Z
2019-06-25T06:29:24Z,42.805,6.029,13.2958,4.59954,2469.844,2019-6-25T08:29:41Z
2019-06-25T06:32:27Z,42.805,6.029,13.2959,4.59954,2469.867,2019-6-25T08:32:44Z
2019-06-25T06:35:30Z,42.805,6.029,13.2960,4.59956,2469.89,2019-6-25T08:35:47Z
2019-06-25T06:38:33Z,42.805,6.029,13.2957,4.59956,2469.853,2019-6-25T08:38:50Z
2019-06-25T06:41:36Z,42.805,6.029,13.2950,4.59957,2469.876,2019-6-25T08:41:53Z
2019-06-25T06:44:39Z,42.805,6.029,13.2960,4.59955,2469.853,2019-6-25T08:44:56Z
2019-06-25T06:47:42Z,42.805,6.029,13.2959,4.59954,2469.83,2019-6-25T08:47:59Z
2019-06-25T06:50:45Z,42.805,6.029,13.2953,4.59955,2469.853,2019-6-25T08:51:02Z
2019-06-25T06:53:48Z,42.805,6.029,13.2956,4.59956,2469.89,2019-6-25T08:54:05Z
2019-06-25T06:56:51Z,42.805,6.029,13.2959,4.59956,2469.867,2019-6-25T08:57:08Z
2019-06-25T06:59:54Z,42.805,6.029,13.2955,4.59956,2469.853,2019-6-25T09:00:11Z
2019-06-25T07:02:57Z,42.805,6.029,13.2959,4.59966,2469.853,2019-6-25T09:03:14Z
2019-06-25T07:06:00Z,42.805,6.029,13.2955,4.59956,2469.876,2019-6-25T09:06:17Z
2019-06-25T07:09:03Z,42.805,6.029,13.2956,4.59954,2469.844,2019-6-25T09:09:20Z
2019-06-25T07:12:06Z,42.805,6.029,13.2958,4.59955,2469.806,2019-6-25T09:12:22Z
2019-06-25T07:15:09Z,42.805,6.029,13.2956,4.59956,2469.844,2019-6-25T09:15:25Z
2019-06-25T07:18:11Z,42.805,6.029,13.2958,4.59954,2469.83,2019-6-25T09:18:28Z
2019-06-25T07:21:14Z,42.805,6.029,13.2957,4.59955,2469.853,2019-6-25T09:21:31Z
2019-06-25T07:24:17Z,42.805,6.029,13.2957,4.59954,2469.844,2019-6-25T09:24:34Z
2019-06-25T07:27:20Z,42.805,6.029,13.2958,4.59954,2469.853,2019-6-25T09:27:37Z
2019-06-25T07:30:23Z,42.805,6.029,13.2957,4.59954,2469.821,2019-6-25T09:30:40Z
2019-06-25T07:33:26Z,42.805,6.029,13.2953,4.59954,2469.83,2019-6-25T09:33:43Z
2019-06-25T07:36:29Z,42.805,6.029,13.2957,4.59956,2469.844,2019-6-25T09:36:46Z
2019-06-25T07:39:32Z,42.805,6.029,13.2957,4.59957,2469.844,2019-6-25T09:39:49Z
2019-06-25T07:42:35Z,42.805,6.029,13.2957,4.59954,2469.806,2019-6-25T09:42:52Z
2019-06-25T07:45:38Z,42.805,6.029,13.2955,4.59954,2469.806,2019-6-25T09:45:55Z
2019-06-25T07:48:41Z,42.805,6.029,13.2957,4.59954,2469.853,2019-6-25T09:48:58Z
2019-06-25T07:51:44Z,42.805,6.029,13.2953,4.59954,2469.806,2019-6-25T09:52:01Z
2019-06-25T07:54:47Z,42.805,6.029,13.2953,4.59954,2469.853,2019-6-25T09:55:04Z
2019-06-25T07:57:50Z,42.805,6.029,13.2953,4.59954,2469.853,2019-6-25T09:58:07Z
2019-06-25T08:00:53Z,42.805,6.029,13.2956,4.59956,2469.844,2019-6-25T10:01:10Z
2019-06-25T08:03:56Z,42.805,6.029,13.2956,4.59953,2469.844,2019-6-25T10:04:13Z
2019-06-25T08:06:59Z,42.805,6.029,13.2957,4.59954,2469.76,2019-6-25T10:07:16Z
2019-06-25T08:10:02Z,42.805,6.029,13.2957,4.59952,2469.821,2019-6-25T10:10:18Z
2019-06-25T08:13:05Z,42.805,6.029,13.2957,4.59953,2469.821,2019-6-25T10:13:21Z
2019-06-25T08:16:08Z,42.805,6.029,13.2954,4.59953,2469.844,2019-6-25T10:16:24Z
2019-06-25T08:19:11Z,42.805,6.029,13.2957,4.59953,2469.844,2019-6-25T10:19:27Z
2019-06-25T08:22:13Z,42.805,6.029,13.2957,4.59955,2469.783,2019-6-25T10:22:30Z
2019-06-25T08:25:16Z,42.805,6.029,13.2958,4.59954,2469.821,2019-6-25T10:25:33Z
2019-06-25T08:28:19Z,42.805,6.029,13.2952,4.59953,2469.797,2019-6-25T10:28:36Z
2019-06-25T08:31:22Z,42.805,6.029,13.2957,4.59951,2469.783,2019-6-25T10:31:39Z
2019-06-25T08:34:25Z,42.805,6.029,13.2958,4.59953,2469.821,2019-6-25T10:34:42Z
2019-06-25T08:37:28Z,42.805,6.029,13.2953,4.59953,2469.821,2019-6-25T10:37:45Z
2019-06-25T08:40:31Z,42.805,6.029,13.2953,4.59951,2469.853,2019-6-25T10:40:48Z
2019-06-25T08:43:34Z,42.805,6.029,13.2955,4.59953,2469.867,2019-6-25T10:43:51Z
2019-06-25T08:46:37Z,42.805,6.029,13.2954,4.59953,2469.844,2019-6-25T10:46:54Z
2019-06-25T08:49:40Z,42.805,6.029,13.2952,4.59954,2469.806,2019-6-25T10:49:57Z
2019-06-25T08:52:43Z,42.805,6.029,13.2955,4.59954,2469.806,2019-6-25T10:53:00Z
2019-06-25T08:55:46Z,42.805,6.029,13.2953,4.59953,2469.844,2019-6-25T10:56:03Z
2019-06-25T08:58:49Z,42.805,6.029,13.2956,4.59952,2469.806,2019-6-25T10:59:06Z
2019-06-25T09:01:52Z,42.805,6.029,13.2955,4.59952,2469.853,2019-6-25T11:02:09Z
2019-06-25T09:04:55Z,42.805,6.029,13.2955,4.59953,2469.806,2019-6-25T11:05:12Z
2019-06-25T09:07:58Z,42.805,6.029,13.2952,4.59954,2469.867,2019-6-25T11:08:15Z
2019-06-25T09:11:01Z,42.805,6.029,13.2957,4.59954,2469.853,2019-6-25T11:11:18Z
2019-06-25T09:14:04Z,42.805,6.029,13.2954,4.59953,2469.853,2019-6-25T11:14:21Z
2019-06-25T09:17:07Z,42.805,6.029,13.2958,4.59956,2469.867,2019-6-25T11:17:23Z
2019-06-25T09:20:10Z,42.805,6.029,13.2957,4.59953,2469.821,2019-6-25T11:20:26Z
2019-06-25T09:23:13Z,42.805,6.029,13.2953,4.59954,2469.806,2019-6-25T11:23:29Z
2019-06-25T09:26:15Z,42.805,6.029,13.2957,4.59961,2469.853,2019-6-25T11:26:32Z
2019-06-25T09:29:18Z,42.805,6.029,13.2953,4.59957,2469.821,2019-6-25T11:29:35Z
2019-06-25T09:32:21Z,42.805,6.029,13.2951,4.59956,2469.83,2019-6-25T11:32:38Z
2019-06-25T09:35:24Z,42.805,6.029,13.2950,4.59953,2469.821,2019-6-25T11:35:41Z
2019-06-25T09:38:27Z,42.805,6.029,13.2952,4.59954,2469.806,2019-6-25T11:38:44Z
2019-06-25T09:41:30Z,42.805,6.029,13.2955,4.59955,2469.806,2019-6-25T11:41:47Z
2019-06-25T09:44:33Z,42.805,6.029,13.2953,4.59952,2469.853,2019-6-25T11:44:50Z
2019-06-25T09:47:36Z,42.805,6.029,13.2957,4.59954,2469.867,2019-6-25T11:47:53Z
2019-06-25T09:50:39Z,42.805,6.029,13.2954,4.59953,2469.867,2019-6-25T11:50:56Z
2019-06-25T09:53:42Z,42.805,6.029,13.2961,4.59954,2469.867,2019-6-25T11:53:59Z
2019-06-25T09:56:45Z,42.805,6.029,13.2956,4.59951,2469.853,2019-6-25T11:57:02Z
2019-06-25T09:59:48Z,42.805,6.029,13.2952,4.59951,2469.806,2019-6-25T12:00:05Z
2019-06-25T10:02:51Z,42.805,6.029,13.2953,4.59960,2469.867,2019-6-25T12:03:08Z
2019-06-25T10:05:54Z,42.805,6.029,13.2953,4.59952,2469.867,2019-6-25T12:06:11Z
2019-06-25T10:08:57Z,42.805,6.029,13.2956,4.59953,2469.839,2019-6-25T12:09:14Z
2019-06-25T10:12:00Z,42.805,6.029,13.2953,4.59958,2469.867,2019-6-25T12:12:17Z
2019-06-25T10:15:03Z,42.805,6.029,13.2957,4.59954,2469.876,2019-6-25T12:15:20Z
2019-06-25T10:18:06Z,42.805,6.029,13.2954,4.59956,2469.867,2019-6-25T12:18:23Z
2019-06-25T10:21:09Z,42.805,6.029,13.2952,4.59953,2469.853,2019-6-25T12:21:25Z
2019-06-25T10:24:12Z,42.805,6.029,13.2957,4.59952,2469.867,2019-6-25T12:24:28Z
2019-06-25T10:27:15Z,42.805,6.029,13.2952,4.59956,2469.844,2019-6-25T12:27:31Z
2019-06-25T10:30:18Z,42.805,6.029,13.2953,4.59953,2469.89,2019-6-25T12:30:34Z
2019-06-25T10:33:20Z,42.805,6.029,13.2953,4.59956,2469.876,2019-6-25T12:33:37Z
2019-06-25T10:36:23Z,42.805,6.029,13.2954,4.59951,2469.853,2019-6-25T12:36:40Z
2019-06-25T10:39:26Z,42.805,6.029,13.2955,4.59952,2469.89,2019-6-25T12:39:43Z
2019-06-25T10:42:29Z,42.805,6.029,13.2954,4.59953,2469.853,2019-6-25T12:42:46Z
2019-06-25T10:45:32Z,42.805,6.029,13.2955,4.59953,2469.881,2019-6-25T12:45:49Z
2019-06-25T10:48:35Z,42.805,6.029,13.2952,4.59955,2469.867,2019-6-25T12:48:52Z
2019-06-25T10:51:38Z,42.805,6.029,13.2956,4.59951,2469.867,2019-6-25T12:51:55Z
2019-06-25T10:54:41Z,42.805,6.029,13.2956,4.59952,2469.867,2019-6-25T12:54:58Z
2019-06-25T10:57:44Z,42.805,6.029,13.2953,4.59958,2469.853,2019-6-25T12:58:01Z
2019-06-25T11:00:47Z,42.805,6.029,13.2953,4.59957,2469.9,2019-6-25T13:01:04Z
2019-06-25T11:03:50Z,42.805,6.029,13.2956,4.59958,2469.867,2019-6-25T13:04:07Z
2019-06-25T11:06:53Z,42.805,6.029,13.2956,4.59952,2469.876,2019-6-25T13:07:10Z
2019-06-25T11:09:56Z,42.805,6.029,13.2959,4.59952,2469.867,2019-6-25T13:10:13Z
2019-06-25T11:12:59Z,42.805,6.029,13.2950,4.59953,2469.853,2019-6-25T13:13:16Z
2019-06-25T11:16:02Z,42.805,6.029,13.2953,4.59955,2469.867,2019-6-25T13:16:19Z
2019-06-25T11:19:05Z,42.805,6.029,13.2955,4.59954,2469.853,2019-6-25T13:19:22Z
2019-06-25T11:22:08Z,42.805,6.029,13.2953,4.59954,2469.89,2019-6-25T13:22:25Z
2019-06-25T11:25:11Z,42.805,6.029,13.2952,4.59953,2469.89,2019-6-25T13:25:27Z
2019-06-25T11:28:14Z,42.805,6.029,13.2956,4.59953,2469.89,2019-6-25T13:28:30Z
2019-06-25T11:31:17Z,42.805,6.029,13.2951,4.59953,2469.89,2019-6-25T13:31:33Z
2019-06-25T11:34:20Z,42.805,6.029,13.2950,4.59951,2469.853,2019-6-25T13:34:36Z
2019-06-25T11:37:22Z,42.805,6.029,13.2955,4.59954,2469.89,2019-6-25T13:37:39Z
2019-06-25T11:40:25Z,42.805,6.029,13.2955,4.59953,2469.867,2019-6-25T13:40:42Z
2019-06-25T11:43:28Z,42.805,6.029,13.2958,4.59952,2469.9,2019-6-25T13:43:45Z
2019-06-25T11:46:31Z,42.805,6.029,13.2957,4.59953,2469.867,2019-6-25T13:46:48Z
2019-06-25T11:49:34Z,42.805,6.029,13.2953,4.59951,2469.876,2019-6-25T13:49:51Z
2019-06-25T11:52:37Z,42.805,6.029,13.2953,4.59956,2469.876,2019-6-25T13:52:54Z
2019-06-25T11:55:40Z,42.805,6.029,13.2955,4.59952,2469.867,2019-6-25T13:55:57Z
2019-06-25T11:58:43Z,42.805,6.029,13.2957,4.59954,2469.876,2019-6-25T13:59:00Z
2019-06-25T12:01:46Z,42.805,6.029,13.2957,4.59951,2469.853,2019-6-25T14:02:03Z
2019-06-25T12:04:49Z,42.805,6.029,13.2954,4.59952,2469.853,2019-6-25T14:05:06Z
2019-06-25T12:07:52Z,42.805,6.029,13.2957,4.59951,2469.876,2019-6-25T14:08:09Z
2019-06-25T12:10:55Z,42.805,6.029,13.2953,4.59954,2469.83,2019-6-25T14:11:12Z
2019-06-25T12:13:58Z,42.805,6.029,13.2953,4.59953,2469.876,2019-6-25T14:14:15Z
2019-06-25T12:17:01Z,42.805,6.029,13.2952,4.59953,2469.853,2019-6-25T14:17:18Z
2019-06-25T12:20:04Z,42.805,6.029,13.2954,4.59951,2469.867,2019-6-25T14:20:21Z
2019-06-25T12:23:07Z,42.805,6.029,13.2956,4.59953,2469.89,2019-6-25T14:23:24Z
2019-06-25T12:26:10Z,42.805,6.029,13.2951,4.59953,2469.876,2019-6-25T14:26:27Z
2019-06-25T12:29:13Z,42.805,6.029,13.2952,4.59953,2469.876,2019-6-25T14:29:30Z
2019-06-25T12:32:16Z,42.805,6.029,13.2952,4.59956,2469.876,2019-6-25T14:32:32Z
2019-06-25T12:35:19Z,42.805,6.029,13.2956,4.59955,2469.876,2019-6-25T14:35:35Z
2019-06-25T12:38:22Z,42.805,6.029,13.2951,4.59952,2469.89,2019-6-25T14:38:38Z
2019-06-25T12:41:24Z,42.805,6.029,13.2955,4.59955,2469.876,2019-6-25T14:41:41Z
2019-06-25T12:44:27Z,42.805,6.029,13.2954,4.59953,2469.876,2019-6-25T14:44:44Z
2019-06-25T12:47:30Z,42.805,6.029,13.2952,4.59954,2469.853,2019-6-25T14:47:47Z
2019-06-25T12:50:33Z,42.805,6.029,13.2957,4.59954,2469.83,2019-6-25T14:50:50Z
2019-06-25T12:53:36Z,42.805,6.029,13.2956,4.59951,2469.89,2019-6-25T14:53:53Z
2019-06-25T12:56:39Z,42.805,6.029,13.2953,4.59951,2469.867,2019-6-25T14:56:56Z
2019-06-25T12:59:42Z,42.805,6.029,13.2952,4.59951,2469.867,2019-6-25T14:59:59Z
2019-06-25T13:02:45Z,42.805,6.029,13.2958,4.59956,2469.89,2019-6-25T15:03:02Z
2019-06-25T13:05:48Z,42.805,6.029,13.2955,4.59956,2469.853,2019-6-25T15:06:05Z
2019-06-25T13:08:51Z,42.805,6.029,13.2953,4.59952,2469.867,2019-6-25T15:09:08Z
2019-06-25T13:11:54Z,42.805,6.029,13.2956,4.59953,2469.9,2019-6-25T15:12:11Z
2019-06-25T13:14:57Z,42.805,6.029,13.2952,4.59956,2469.876,2019-6-25T15:15:14Z
2019-06-25T13:18:00Z,42.805,6.029,13.2957,4.59954,2469.844,2019-6-25T15:18:17Z
2019-06-25T13:21:03Z,42.805,6.029,13.2955,4.59951,2469.853,2019-6-25T15:21:20Z
2019-06-25T13:24:06Z,42.805,6.029,13.2952,4.59951,2469.867,2019-6-25T15:24:23Z
2019-06-25T13:27:09Z,42.805,6.029,13.2953,4.59954,2469.89,2019-6-25T15:27:26Z
2019-06-25T13:30:12Z,42.805,6.029,13.2957,4.59952,2469.853,2019-6-25T15:30:29Z
2019-06-25T13:33:15Z,42.805,6.029,13.2954,4.59954,2469.853,2019-6-25T15:33:32Z
2019-06-25T13:36:18Z,42.805,6.029,13.2952,4.59954,2469.867,2019-6-25T15:36:35Z
2019-06-25T13:39:21Z,42.805,6.029,13.2953,4.59951,2469.83,2019-6-25T15:39:37Z
2019-06-25T13:42:24Z,42.805,6.029,13.2952,4.59952,2469.867,2019-6-25T15:42:40Z
2019-06-25T13:45:27Z,42.805,6.029,13.2952,4.59954,2469.89,2019-6-25T15:45:43Z
2019-06-25T13:48:29Z,42.805,6.029,13.2957,4.59951,2469.867,2019-6-25T15:48:46Z
2019-06-25T13:51:32Z,42.805,6.029,13.2950,4.59952,2469.89,2019-6-25T15:51:49Z
2019-06-25T13:54:35Z,42.805,6.029,13.2954,4.59958,2469.853,2019-6-25T15:54:52Z
2019-06-25T13:57:38Z,42.805,6.029,13.2957,4.59954,2469.876,2019-6-25T15:57:55Z
2019-06-25T14:00:41Z,42.805,6.029,13.2954,4.59955,2469.876,2019-6-25T16:00:58Z
2019-06-25T14:03:44Z,42.805,6.029,13.2949,4.59951,2469.89,2019-6-25T16:04:01Z
2019-06-25T14:06:47Z,42.805,6.029,13.2953,4.59954,2469.89,2019-6-25T16:07:04Z
2019-06-25T14:09:50Z,42.805,6.029,13.2954,4.59957,2469.867,2019-6-25T16:10:07Z
2019-06-25T14:12:53Z,42.805,6.029,13.2953,4.59951,2469.844,2019-6-25T16:13:10Z
2019-06-25T14:15:56Z,42.805,6.029,13.2956,4.59954,2469.867,2019-6-25T16:16:13Z
2019-06-25T14:18:59Z,42.805,6.029,13.2959,4.59956,2469.876,2019-6-25T16:19:16Z
2019-06-25T14:22:02Z,42.805,6.029,13.2952,4.59957,2469.853,2019-6-25T16:22:19Z
2019-06-25T14:25:05Z,42.805,6.029,13.2953,4.59953,2469.83,2019-6-25T16:25:22Z
2019-06-25T14:28:08Z,42.805,6.029,13.2959,4.59956,2469.853,2019-6-25T16:28:25Z
2019-06-25T14:31:11Z,42.805,6.029,13.2952,4.59954,2469.83,2019-6-25T16:31:28Z
2019-06-25T14:34:14Z,42.805,6.029,13.2953,4.59956,2469.83,2019-6-25T16:34:31Z
2019-06-25T14:37:17Z,42.805,6.029,13.2953,4.59953,2469.867,2019-6-25T16:37:34Z
2019-06-25T14:40:20Z,42.805,6.029,13.2957,4.59951,2469.867,2019-6-25T16:40:37Z
2019-06-25T14:43:23Z,42.805,6.029,13.2951,4.59952,2469.853,2019-6-25T16:43:39Z
2019-06-25T14:46:26Z,42.805,6.029,13.2962,4.59952,2469.853,2019-6-25T16:46:42Z
2019-06-25T14:49:29Z,42.805,6.029,13.2954,4.59956,2469.83,2019-6-25T16:49:45Z
2019-06-25T14:52:32Z,42.805,6.029,13.2955,4.59958,2469.876,2019-6-25T16:52:48Z
2019-06-25T14:55:34Z,42.805,6.029,13.2958,4.59952,2469.89,2019-6-25T16:55:51Z
2019-06-25T14:58:37Z,42.805,6.029,13.2958,4.59952,2469.89,2019-6-25T16:58:54Z
2019-06-25T15:01:40Z,42.805,6.029,13.2953,4.59953,2469.844,2019-6-25T17:01:57Z
2019-06-25T15:04:43Z,42.805,6.029,13.2955,4.59954,2469.853,2019-6-25T17:05:00Z
2019-06-25T15:07:46Z,42.805,6.029,13.2951,4.59954,2469.83,2019-6-25T17:08:03Z
2019-06-25T15:10:49Z,42.805,6.029,13.2949,4.59961,2469.83,2019-6-25T17:11:06Z
2019-06-25T15:13:52Z,42.805,6.029,13.2956,4.59956,2469.9,2019-6-25T17:14:09Z